CAPE
1455 1248 663 509 280 385 554 214 73 44 1 21 28 12 10 40 0 0 0 0 0 0 0 0 0 0 0 0 0 5 15 18 29 71 97 136 174 177
604 716 488 210 185 238 468 249 93 52 33 1 0 0 3 6 0 0 5 27 0 0 0 0 0 0 0 0 0 0 0 0 0 29 56 64 83 117
341 410 424 241 87 274 194 215 67 27 9 6 1 0 2 2 1 0 0 29 38 0 0 0 0 0 0 0 0 0 0 0 0 0 4 6 5 2
364 186 249 96 29 150 100 85 41 38 22 6 0 0 1 6 0 1 0 17 101 0 0 0 0 0 0 0 0 0 0 0 0 0 0 0 0 0
160 171 192 30 2 43 58 50 142 49 9 3 0 2 2 2 2 1 1 0 0 0 1 0 0 0 0 0 0 0 0 0 0 0 0 0 0 0
43 91 45 2 6 40 36 126 83 12 3 1 0 2 3 2 1 1 2 1 0 0 0 0 1 5 0 0 0 0 0 0 0 0 0 0 0 0
3 1 0 1 0 26 109 64 18 5 1 2 1 2 1 0 0 1 2 2 2 2 4 6 5 5 5 1 2 1 3 1 1 1 0 0 0 0
0 3 1 0 0 3 0 0 1 2 3 1 1 1 3 0 1 1 2 0 1 1 5 7 5 7 6 6 0 0 1 2 3 2 1 1 0 0
4 2 2 1 1 0 0 1 0 0 1 2 0 5 0 0 0 2 3 0 0 0 0 1 2 4 2 1 1 1 2 4 4 4 3 2 1 0
1 1 2 2 0 0 0 0 2 1 0 0 0 0 1 1 0 0 0 0 0 0 0 0 1 1 0 2 5 4 3 5 6 6 3 1 0 0
2 3 1 1 0 0 0 0 1 2 2 3 2 2 1 1 0 1 1 0 0 0 0 0 1 1 0 1 1 5 4 3 1 1 0 0 0 0
2 3 2 0 0 0 1 1 0 1 1 0 0 0 1 0 0 1 1 0 0 0 0 0 0 0 1 1 4 3 4 6 6 8 8 1 0 8
2 3 4 5 4 1 0 0 2 1 1 1 3 1 2 1 0 0 0 0 0 0 0 0 1 2 1 2 2 1 1 3 2 2 3 0 0 0
13 10 9 8 6 4 2 2 1 1 0 0 0 1 2 2 3 2 1 0 1 1 1 0 1 0 2 2 0 3 3 3 7 5 7 0 0 0
12 8 3 2 2 4 4 2 2 1 1 0 0 0 1 1 1 1 0 1 0 1 0 0 0 0 0 0 1 4 4 8 16 12 3 0 0 0
10 13 4 1 4 8 10 13 14 13 7 4 5 6 7 3 2 2 0 0 0 0 1 1 1 1 2 4 4 6 7 5 6 1 2 3 2 2
15 21 15 16 12 17 15 13 12 11 11 13 11 10 7 7 7 9 7 5 4 3 3 5 6 6 12 7 5 6 9 6 5 0 0 0 0 0
8 12 12 12 13 12 12 12 13 10 13 11 10 8 7 7 6 6 7 7 7 6 4 5 6 3 1 0 0 0 0 0 0 0 0 0 0 0
14 17 17 15 12 8 8 8 9 7 5 10 11 11 9 7 3 2 0 0 1 2 2 2 2 1 2 1 0 0 1 0 0 0 0 0 0 0
8 11 12 12 7 6 6 8 10 11 9 6 11 12 12 7 5 4 4 2 0 0 0 0 0 0 3 4 3 0 0 4 1 0 0 0 0 0
9 9 16 13 13 12 20 19 17 17 15 16 16 13 15 8 4 1 0 0 0 0 0 0 0 0 0 2 7 5 1 0 0 0 0 1 0 0
17 12 13 14 15 15 19 19 18 18 16 14 20 21 19 11 7 4 3 0 0 0 0 0 0 0 0 0 4 4 3 0 0 0 0 0 1 4
18 14 15 14 13 11 9 15 14 21 15 16 21 15 18 12 8 7 3 0 0 0 0 0 0 0 0 0 0 1 0 0 0 0 0 0 0 0
CIN
0 0 -8 -14 -22 -6 0 -6 -8 0 -1 0 -1 -34 -40 -13 0 0 0 0 0 0 0 0 0 0 0 0 0 -17 -23 -18 -16 -10 -8 -6 -4 -2
-16 -2 -11 -31 -26 -20 0 -5 -17 0 0 -6 -2 0 -1 -1 -1 0 -3 -13 0 0 0 0 0 0 0 0 0 0 0 0 0 -56 -22 -14 -7 -3
-41 -15 -13 -11 -30 -9 -16 -13 -43 0 -4 -1 -1 0 0 0 0 -1 -3 -3 0 0 0 0 0 0 0 0 0 0 0 0 0 0 -227 -197 -93 -25
-52 -39 -21 -21 -52 -6 -32 -61 -68 0 0 0 0 0 -1 0 -1 0 0 -1 0 0 0 0 0 0 0 0 0 0 0 0 0 0 0 0 0 0
-53 -41 -35 -44 0 -31 -40 -84 -20 -20 -1 0 0 0 0 0 0 0 0 -4 0 0 0 0 0 0 0 0 0 0 0 0 0 0 0 0 0 0
-62 -40 -56 -10 0 -6 -50 -32 -44 -2 0 0 0 0 0 0 0 0 0 0 0 0 0 0 0 0 0 0 0 0 0 0 0 0 0 0 0 0
-19 -26 -13 -1 0 -7 -18 -56 -104 0 0 0 0 0 0 0 0 -1 -1 0 0 0 0 0 0 0 0 0 0 0 0 0 0 0 0 0 0 0
0 0 -1 0 0 -45 0 0 0 0 0 0 0 0 0 -1 0 -1 -1 0 0 0 0 0 0 0 0 0 0 0 0 0 0 0 0 0 0 0
0 0 0 0 0 0 0 0 0 0 0 0 0 0 -1 0 0 0 0 0 0 0 0 0 0 0 0 0 0 0 0 0 0 0 0 0 0 0
0 0 0 0 0 0 0 0 0 0 0 0 0 0 0 0 0 0 0 0 0 0 0 0 0 0 0 0 0 0 0 0 0 0 0 0 0 0
0 0 0 0 0 0 0 0 0 0 0 0 0 0 0 0 0 0 0 0 0 0 0 0 0 0 0 0 0 0 0 0 0 0 0 0 0 0
0 0 0 0 0 0 0 0 0 0 0 0 0 0 0 0 0 0 0 0 0 0 0 0 0 0 0 0 0 0 0 0 0 0 0 0 0 0
0 0 0 0 0 0 0 0 0 0 0 0 0 0 0 0 0 0 0 0 0 0 0 0 0 0 0 0 0 0 0 0 0 0 0 0 0 0
0 0 0 0 0 0 0 0 0 0 0 0 0 0 0 0 0 0 0 0 0 0 0 0 0 0 0 0 0 0 0 0 0 0 0 0 0 0
0 0 0 0 0 0 0 0 0 0 0 0 0 0 0 0 0 0 0 0 0 0 0 0 0 0 0 0 0 0 0 0 0 0 0 0 0 0
0 0 0 0 0 0 0 0 0 0 0 0 0 0 0 0 0 0 0 0 0 0 0 0 0 0 0 0 0 0 0 0 0 0 0 0 0 0
0 0 0 0 0 0 0 0 0 0 0 0 0 0 0 0 0 0 0 0 0 0 0 0 0 0 0 0 0 0 0 0 0 0 0 0 0 0
0 0 0 0 0 0 0 0 0 0 0 0 0 0 0 0 0 0 0 0 0 0 0 0 0 0 0 0 0 0 0 0 0 0 0 0 0 0
0 0 0 0 0 0 0 0 0 0 0 0 0 0 0 0 0 0 0 0 0 0 0 0 0 0 0 0 0 0 0 0 0 0 0 0 0 0
0 0 0 0 0 0 0 0 0 0 0 0 0 0 0 0 0 0 0 0 0 0 0 0 0 0 0 0 0 0 0 0 0 0 0 0 0 0
0 0 0 0 0 0 0 0 0 0 0 0 0 0 0 0 0 0 0 0 0 0 0 0 0 0 0 0 0 0 0 0 0 0 0 0 0 0
0 0 0 0 0 0 0 0 0 0 0 0 0 0 0 0 0 0 0 0 0 0 0 0 0 0 0 0 0 0 0 0 0 0 0 0 0 0
0 0 0 0 0 0 0 0 0 0 0 0 0 0 0 0 0 0 0 0 0 0 0 0 0 0 0 0 0 0 0 0 0 0 0 0 0 0
Wind_Speed
15 15 12 9 9 10 11 8 7 9 7 10 8 13 11 12 14 14 15 19 20 19 18 17 16 16 16 16 15 15 14 14 14 15 16 17 17 18
9 13 12 9 9 8 9 8 9 10 11 7 10 7 13 11 12 15 15 13 19 19 19 18 18 18 17 16 15 16 16 16 15 15 15 15 16 16
12 13 15 13 9 9 9 10 9 8 10 7 7 9 11 12 11 13 12 11 12 17 17 17 19 17 16 15 15 16 16 15 14 15 15 15 15 13
14 13 14 10 13 12 8 11 9 10 9 13 6 8 11 15 13 13 12 10 11 12 16 16 16 16 15 14 14 14 14 13 13 13 11 11 10 11
13 14 15 13 12 10 10 10 12 9 9 9 6 6 6 7 9 9 10 7 4 9 8 6 8 10 10 12 12 12 10 10 10 8 8 9 10 10
14 14 14 14 14 14 12 14 11 8 8 7 7 6 7 6 9 9 7 4 6 6 9 7 7 9 10 11 12 12 13 12 13 11 12 12 11 12
11 11 13 14 16 14 9 11 10 9 7 8 7 6 6 5 10 7 8 6 4 4 6 6 7 7 7 8 10 14 15 16 17 17 17 14 14 13
6 8 8 9 8 10 11 10 11 12 11 9 9 9 11 10 9 8 8 6 5 5 6 4 4 5 5 4 10 13 15 16 18 19 18 17 16 13
10 9 9 7 6 5 3 9 9 9 3 11 12 12 12 13 11 11 13 11 9 8 6 3 2 6 5 7 12 13 14 15 19 18 19 18 15 13
12 10 10 10 11 8 4 5 7 10 8 4 5 5 5 4 9 13 11 6 6 5 5 5 3 4 5 6 13 14 14 15 16 17 17 17 15 13
11 14 9 8 13 10 4 9 7 8 12 19 19 17 18 18 13 3 4 7 2 3 1 5 5 7 4 4 7 14 15 14 15 14 15 16 15 14
10 12 23 16 14 14 10 4 8 6 6 7 7 12 14 14 19 10 5 11 5 3 4 5 10 6 5 1 6 5 6 12 12 12 13 12 10 5
8 10 10 22 21 22 19 8 7 7 9 8 8 8 9 10 9 9 10 5 2 3 3 4 7 5 4 7 4 5 5 4 4 5 8 9 4 5
11 8 9 18 23 23 14 20 15 8 8 8 9 8 9 9 9 9 12 11 10 8 4 2 4 5 6 5 5 5 5 4 4 4 4 4 4 2
9 12 18 18 18 15 21 17 11 8 8 9 8 7 7 6 7 7 10 10 16 14 11 7 6 10 4 7 7 7 7 4 4 4 5 6 5 5
9 8 8 9 13 12 10 12 10 9 8 7 7 6 5 7 8 6 5 7 10 10 14 14 12 9 9 9 9 8 7 5 5 4 3 3 4 5
5 6 7 8 9 9 9 9 9 8 8 7 6 6 7 8 8 7 7 8 8 8 9 9 14 14 11 11 9 7 7 6 5 5 5 4 3 3
6 7 8 8 8 8 8 8 8 9 7 7 7 7 7 7 7 8 7 7 8 7 7 7 8 8 7 11 14 6 6 6 5 4 3 2 3 4
7 7 7 7 7 7 7 7 7 7 6 6 6 6 6 6 6 6 6 7 7 6 6 4 2 3 7 7 4 18 5 4 3 3 1 1 1 2
7 7 7 7 7 7 7 6 6 6 6 6 6 6 6 5 5 6 5 6 6 6 7 6 5 4 5 6 5 5 15 3 2 1 0 2 1 0
7 7 7 7 6 6 6 6 6 6 6 5 6 5 5 5 6 6 6 6 5 4 6 6 5 3 6 7 7 6 5 7 6 4 4 3 1 2
7 7 7 7 7 7 6 6 5 5 5 5 5 5 5 5 5 5 5 5 4 5 5 4 4 3 2 2 5 5 4 2 6 6 7 6 5 3
7 6 6 6 7 7 6 6 6 5 6 5 5 5 4 4 4 4 5 4 4 4 4 4 4 4 4 5 4 5 5 3 0 2 5 6 2 4
Wind_Direction
219 218 215 216 215 226 244 241 232 253 231 227 225 207 213 213 207 202 209 200 202 207 202 207 210 209 210 213 211 216 224 230 229 225 228 233 239 246
218 216 216 216 214 216 225 226 229 239 257 217 221 200 207 215 203 200 213 206 198 204 207 204 209 214 216 216 213 216 222 225 227 229 229 234 239 245
217 216 219 214 212 214 217 230 227 228 247 243 229 213 202 206 206 204 205 215 210 200 208 209 208 212 218 218 214 218 222 223 225 226 230 235 239 243
217 216 217 210 211 215 215 224 227 228 233 247 219 207 206 205 204 196 199 215 226 183 199 205 210 205 204 215 212 214 211 211 222 220 219 225 230 236
224 219 218 206 210 214 221 234 240 239 236 232 213 196 199 194 198 195 188 189 85 94 109 175 199 202 192 206 206 207 194 188 187 198 175 183 181 183
226 222 220 209 212 220 229 234 240 231 220 215 211 197 199 185 193 186 169 133 147 108 61 76 121 118 123 136 144 142 134 136 133 134 123 119 116 117
235 228 229 232 229 233 224 223 226 222 217 212 207 195 191 173 190 181 182 133 118 126 138 142 125 116 119 106 124 132 131 128 126 120 114 108 104 105
272 227 223 215 248 248 234 230 219 214 216 211 209 208 204 198 193 189 181 155 176 165 149 127 137 120 121 117 115 126 127 129 125 122 118 111 104 102
12 5 344 20 324 228 142 111 71 38 315 226 211 208 205 199 186 186 193 198 206 150 131 97 99 91 92 101 111 118 121 127 123 122 119 116 112 108
33 16 18 9 360 336 125 83 60 46 26 32 42 37 3 335 199 196 193 133 60 112 126 124 135 96 98 99 114 111 106 109 114 121 118 116 115 114
30 28 15 28 6 4 88 107 87 66 54 64 67 54 49 33 12 152 147 153 142 158 113 114 154 114 99 100 103 104 104 112 121 123 120 117 122 125
26 23 24 23 32 55 62 40 77 53 42 41 38 42 37 31 32 21 338 202 130 127 181 108 147 144 132 89 117 102 95 93 100 104 115 118 139 148
24 24 26 32 34 54 66 65 63 78 56 54 44 41 47 42 32 35 18 11 50 86 144 120 157 141 103 134 112 106 114 107 107 99 103 127 129 336
30 28 30 36 47 48 50 59 65 68 72 66 55 38 45 46 35 41 42 50 44 49 72 41 125 139 133 124 134 143 133 131 139 144 143 149 171 239
32 35 35 34 38 47 49 49 51 48 57 66 58 54 33 43 50 42 49 50 58 41 31 44 100 121 112 119 136 142 145 141 152 152 180 170 161 178
21 28 30 41 51 42 40 45 48 47 59 70 73 68 53 53 54 36 39 49 61 46 40 43 52 73 94 106 118 133 124 133 150 136 145 161 175 179
0 29 31 34 35 35 44 42 42 51 53 51 57 65 63 59 53 51 53 67 73 70 66 58 58 59 66 88 97 107 117 126 145 156 177 163 172 172
34 37 37 34 34 33 33 39 38 38 41 52 53 53 52 63 69 66 61 63 78 79 83 89 102 98 78 60 37 116 126 128 134 130 133 174 186 163
40 39 37 31 33 34 34 35 40 32 33 45 54 59 69 63 68 77 83 93 94 92 90 89 87 136 136 110 83 17 110 103 135 128 86 116 264 256
32 28 30 29 27 31 30 31 33 35 36 40 53 56 54 65 78 79 78 95 104 111 105 92 72 42 109 135 123 79 23 79 56 39 354 297 254 223
22 28 23 20 23 25 25 33 35 40 32 44 51 53 51 63 74 82 81 61 81 89 90 78 80 52 100 109 122 136 101 59 30 350 334 286 275 207
8 18 15 17 13 11 19 5 28 24 31 44 43 48 50 58 68 68 67 77 72 83 92 96 105 104 105 146 104 121 114 55 137 107 71 22 343 307
8 6 13 14 6 11 9 14 18 27 18 25 29 51 31 61 60 72 80 69 76 82 91 104 104 98 86 74 98 119 123 147 94 183 158 101 40 311